[[{"header":{"parameterUnit":"m.s-1","parameterCategory":1,"la1":30.2991,"la2":30.254,"lo1":-89.0895,"lo2":-89.0444,"dy":0.0017,"dx":0.0017,"nx":28,"ny":28,"refTime":"2025-11-12T09:00:00:Z","depth":0,"parameterNumber":2,"parameterNumberName":"U-component_of_WINDS"},"data":[0,0,0,0,0,0,0,0,0,0,0,0,0,0,0,0,0,0,0,0,0,0,0,0,0,0,0,0,0,0,0,0,0,0,0,0,0,0,0,0,0,0,0,0,0,0,0,0,0,0,0,0,0,0,0,0,0,0,0.3378,0.3378,0,0.3335,0.3335,0.3334,0.3268,0.3267,0.3266,0.3265,0.3221,0.3221,0.322,0,0,0,0,0,0,0,0,0,0,0,0,0,0.3403,0.3403,0.3378,0.3378,0.3377,0.3335,0.3335,0.3334,0.3268,0.3267,0.3265,0.3264,0.3221,0.3221,0.322,0,0,0,0,0,0,0,0,0,0,0,0,0,0.3379,0.3402,0.3378,0.3339,0.3335,0.3336,0.3335,0.3334,0.3269,0.3267,0.3265,0.3263,0.3221,0.3221,0.322,0.3255,0,0,0.322,0.322,0,0,0,0,0,0,0,0,0.3381,0.3378,0.3345,0.3342,0.3337,0.3305,0.3327,0.3308,0.3269,0.3294,0.3265,0.3262,0.325,0.3248,0.3243,0.3253,0.3252,0.322,0.322,0.322,0.322,0,0,0,0,0,0,0,0.3382,0.338,0.3361,0.3345,0.334,0.3324,0.3318,0.3323,0.3283,0.3292,0.3287,0.3283,0.3248,0.3244,0.3242,0.3251,0.322,0.322,0.322,0.322,0.3288,0.329,0,0,0,0,0,0,0.339,0.3382,0.3362,0.336,0.3355,0.3325,0.3319,0.3317,0.3282,0.3275,0.3284,0.328,0.3245,0.3242,0.324,0.328,0.322,0.322,0.322,0.3286,0.3289,0.3291,0,0,0,0,0,0,0.3391,0.3389,0.3364,0.3369,0.3365,0.3326,0.3325,0.3317,0.3313,0.3277,0.3269,0.3288,0.3243,0.324,0.3252,0.3277,0.322,0.322,0.3284,0.3287,0.329,0.3359,0,0,0,0,0,0,0.3391,0.3389,0.3402,0.337,0.3365,0.3378,0.3327,0.3318,0.3313,0.3307,0.3278,0.3271,0.3242,0.3253,0.3252,0.3276,0.322,0.3282,0.3286,0.3289,0.3354,0.3364,0.3372,0,0,0,0,0,0.3393,0.3423,0.3403,0.3401,0.338,0.3379,0.3376,0.3341,0.3316,0.3329,0.3305,0.3272,0.3274,0.3255,0.3253,0.3278,0.328,0.3284,0.3289,0.335,0.3362,0.3372,0,0,0,0,0,0,0.3459,0.3418,0.3396,0.3417,0.3402,0.3368,0.3383,0.3355,0.3347,0.3341,0.3298,0.3292,0.331,0.3294,0.3273,0.331,0.3272,0.3276,0.332,0.333,0.3339,0.3343,0.322,0,0,0,0,0,0.3476,0.3479,0.3443,0.3465,0.3458,0.3422,0.342,0.3395,0.3378,0.3371,0.3348,0.3333,0.333,0.3329,0.3324,0.3351,0.3344,0.3367,0.3376,0.3383,0.3388,0.3402,0.3412,0.3305,0.3305,0.3304,0,0,0.3512,0.349,0.3494,0.3478,0.3463,0.3467,0.3417,0.3423,0.3425,0.3372,0.3382,0.3365,0.3345,0.3365,0.3373,0.3353,0.3416,0.3389,0.3395,0.3395,0.3407,0.3418,0.3427,0.3307,0.3307,0.3306,0,0,0.3578,0.3562,0.3578,0.3565,0.3544,0.3519,0.3524,0.3494,0.3481,0.349,0.345,0.3452,0.3448,0.3436,0.3429,0.3492,0.3462,0.3491,0.3538,0.3552,0.356,0.3568,0.3591,0.36,0.3495,0.3496,0.3496,0,0.3625,0.3629,0.3591,0.3599,0.3594,0.3545,0.3563,0.3551,0.353,0.3527,0.3505,0.3499,0.3482,0.3499,0.3515,0.351,0.3514,0.3495,0.3562,0.3569,0.3575,0.3597,0.3606,0.3499,0.3499,0.3499,0.3498,0,0.3688,0.3691,0.3708,0.3688,0.3684,0.3697,0.3661,0.3662,0.3637,0.3615,0.3626,0.3604,0.3594,0.3596,0.3571,0.361,0.3598,0.357,0.3531,0.359,0.361,0.3618,0.3505,0.3504,0.3502,0.3501,0,0,0.3796,0.3756,0.3762,0.3753,0.3726,0.3728,0.3739,0.373,0.3732,0.3718,0.3727,0.3724,0.3698,0.3691,0.3664,0.3676,0.3729,0.3646,0.3645,0.3663,0.3771,0.3793,0.3804,0.3708,0.3709,0.3711,0.3773,0,0.3858,0.3874,0.3841,0.3865,0.3868,0.3822,0.3832,0.3817,0.3796,0.3796,0.3773,0.3773,0.3738,0.3733,0.3743,0.372,0.375,0.3715,0.3716,0.3717,0.3724,0.3814,0.3837,0.3897,0.378,0.3782,0.3782,0,0.3933,0.3924,0.3949,0.3921,0.3921,0.393,0.3919,0.3919,0.3901,0.3886,0.3878,0.3847,0.3855,0.3818,0.383,0.3807,0.3805,0.3794,0.3795,0.3795,0.3754,0.3817,0.3915,0.3925,0.3794,0.3793,0.3792,0,0.401,0.4004,0.4019,0.4012,0.398,0.3988,0.3974,0.3954,0.3951,0.3942,0.3939,0.3931,0.3927,0.3921,0.3889,0.3864,0.3905,0.3864,0.3893,0.3894,0.3905,0.3905,0.4005,0.3902,0.3902,0.3902,0.3901,0,0.4084,0.4101,0.4053,0.4062,0.4081,0.4041,0.4061,0.4043,0.4026,0.4031,0.399,0.3996,0.3952,0.3953,0.3928,0.3942,0.394,0.3928,0.3922,0.3933,0.3934,0.3932,0.3927,0.3904,0.3903,0.3903,0.3903,0,0.4174,0.4142,0.4155,0.4124,0.4116,0.4131,0.4104,0.4111,0.4089,0.4096,0.4095,0.4059,0.4058,0.4025,0.4017,0.4,0.4026,0.4011,0.4032,0.4028,0.4059,0.4057,0.4162,0.4174,0.4063,0.4064,0.4065,0,0.4223,0.4236,0.4206,0.4206,0.4195,0.4196,0.4193,0.4155,0.4153,0.4134,0.4144,0.414,0.4134,0.4135,0.4109,0.4102,0.4087,0.4125,0.4086,0.4097,0.4089,0.4089,0.4091,0.4133,0.4135,0.4136,0.4137,0,0.4315,0.4299,0.4295,0.4287,0.4285,0.4276,0.4265,0.4268,0.4226,0.4227,0.4225,0.4221,0.4213,0.421,0.4199,0.4185,0.4155,0.4149,0.4156,0.4168,0.418,0.4175,0.4056,0.4147,0.4146,0.4145,0.4145,0.4144,0.4386,0.4396,0.4376,0.4374,0.4362,0.4353,0.4359,0.4337,0.4335,0.4326,0.4303,0.4306,0.4288,0.427,0.4259,0.4261,0.4242,0.4251,0.4254,0.4257,0.4264,0.4179,0.4259,0.4258,0.4258,0.4258,0.4258,0,0.4477,0.4462,0.4461,0.4447,0.4446,0.4416,0.4403,0.4404,0.4407,0.4393,0.4388,0.4387,0.4384,0.4358,0.4351,0.4358,0.4343,0.4357,0.4357,0.4355,0.428,0.4276,0.4369,0.4369,0.4369,0.4369,0.4369,0.4369,0.4524,0.4538,0.452,0.4528,0.4513,0.4515,0.451,0.4502,0.449,0.4491,0.4488,0.4471,0.4452,0.4444,0.444,0.4432,0.4432,0.4451,0.4439,0.437,0.436,0.4349,0.4345,0.4451,0.4452,0.4513,0.4514,0.4514]},{"header":{"parameterUnit":"m.s-1","parameterCategory":1,"la1":30.2991,"la2":30.254,"lo1":-89.0895,"lo2":-89.0444,"dy":0.0017,"dx":0.0017,"nx":28,"ny":28,"refTime":"2025-11-12T09:00:00:Z","depth":0,"parameterNumber":3,"parameterNumberName":"V-component_of_WINDS"},"data":[0,0,0,0,0,0,0,0,0,0,0,0,0,0,0,0,0,0,0,0,0,0,0,0,0,0,0,0,0,0,0,0,0,0,0,0,0,0,0,0,0,0,0,0,0,0,0,0,0,0,0,0,0,0,0,0,0,0,-0.6943,-0.6943,0,-0.7018,-0.7019,-0.7019,-0.7034,-0.7033,-0.7033,-0.7032,-0.7111,-0.7113,-0.7116,0,0,0,0,0,0,0,0,0,0,0,0,0,-0.6814,-0.6817,-0.6942,-0.6943,-0.6944,-0.7018,-0.7019,-0.702,-0.7034,-0.7033,-0.7033,-0.7032,-0.711,-0.7113,-0.7116,0,0,0,0,0,0,0,0,0,0,0,0,0,-0.6878,-0.6817,-0.6942,-0.696,-0.6963,-0.7017,-0.7019,-0.702,-0.7034,-0.7033,-0.7032,-0.7032,-0.7109,-0.7113,-0.7117,-0.7159,0,0,-0.7129,-0.7131,0,0,0,0,0,0,0,0,-0.6874,-0.6883,-0.6957,-0.6959,-0.6962,-0.7015,-0.7002,-0.7067,-0.7034,-0.7007,-0.7032,-0.7031,-0.708,-0.7086,-0.7102,-0.7163,-0.7166,-0.7129,-0.7132,-0.7133,-0.7135,0,0,0,0,0,0,0,-0.687,-0.6879,-0.6972,-0.6958,-0.6961,-0.6966,-0.6974,-0.7015,-0.7048,-0.7009,-0.7011,-0.7019,-0.7081,-0.7099,-0.7104,-0.7167,-0.7129,-0.7133,-0.7135,-0.7137,-0.7268,-0.727,0,0,0,0,0,0,-0.6862,-0.6876,-0.697,-0.6975,-0.6915,-0.6969,-0.6978,-0.6999,-0.7047,-0.7054,-0.702,-0.702,-0.7092,-0.71,-0.7107,-0.7161,-0.7133,-0.7137,-0.7139,-0.7267,-0.7269,-0.727,0,0,0,0,0,0,-0.6859,-0.687,-0.6967,-0.6926,-0.6938,-0.6972,-0.6996,-0.7001,-0.7018,-0.7055,-0.7061,-0.7031,-0.7092,-0.7102,-0.7146,-0.7164,-0.7139,-0.7142,-0.7266,-0.7268,-0.7269,-0.7268,0,0,0,0,0,0,-0.6855,-0.6869,-0.6885,-0.6926,-0.694,-0.7004,-0.6997,-0.7003,-0.7025,-0.7025,-0.7068,-0.7074,-0.7092,-0.714,-0.715,-0.7169,-0.7146,-0.7265,-0.7267,-0.7269,-0.7267,-0.727,-0.7272,0,0,0,0,0,-0.6851,-0.6881,-0.6885,-0.6897,-0.696,-0.7005,-0.7013,-0.7033,-0.7026,-0.7043,-0.7067,-0.7072,-0.716,-0.7145,-0.7156,-0.7176,-0.7264,-0.7266,-0.7269,-0.7266,-0.7269,-0.7272,0,0,0,0,0,0,-0.6842,-0.6887,-0.6892,-0.6937,-0.6967,-0.7007,-0.7029,-0.7036,-0.7069,-0.7068,-0.7092,-0.7101,-0.7145,-0.7165,-0.7147,-0.7221,-0.7212,-0.7217,-0.7206,-0.7209,-0.7212,-0.7206,-0.7149,0,0,0,0,0,-0.6845,-0.6876,-0.6915,-0.6951,-0.6965,-0.6994,-0.7015,-0.7027,-0.706,-0.7073,-0.71,-0.7132,-0.7167,-0.7189,-0.7223,-0.727,-0.728,-0.729,-0.7292,-0.7294,-0.7298,-0.7326,-0.733,-0.7278,-0.7278,-0.7278,0,0,-0.6852,-0.6881,-0.6899,-0.6949,-0.6974,-0.7007,-0.7005,-0.704,-0.7065,-0.7078,-0.7122,-0.7143,-0.7181,-0.7227,-0.7249,-0.7245,-0.7315,-0.7297,-0.7299,-0.7301,-0.7329,-0.7334,-0.7338,-0.728,-0.728,-0.7279,0,0,-0.6881,-0.6906,-0.6939,-0.6964,-0.7002,-0.7021,-0.7029,-0.7069,-0.7083,-0.7128,-0.7139,-0.717,-0.7229,-0.7256,-0.7277,-0.7319,-0.7325,-0.7329,-0.7342,-0.7369,-0.7373,-0.7377,-0.7392,-0.7398,-0.7333,-0.7333,-0.7333,0,-0.6885,-0.6934,-0.6955,-0.699,-0.7012,-0.7026,-0.706,-0.7084,-0.7131,-0.7147,-0.7142,-0.7218,-0.7244,-0.7297,-0.7307,-0.7324,-0.7335,-0.7324,-0.7371,-0.7375,-0.7379,-0.7394,-0.7399,-0.7333,-0.7333,-0.7333,-0.7333,0,-0.6938,-0.6972,-0.6995,-0.7039,-0.7065,-0.7099,-0.7126,-0.7149,-0.716,-0.718,-0.7227,-0.7259,-0.73,-0.7314,-0.7325,-0.7369,-0.7366,-0.7366,-0.7357,-0.7384,-0.7398,-0.7404,-0.7334,-0.7333,-0.7333,-0.7333,0,0,-0.6962,-0.7019,-0.7027,-0.7048,-0.7092,-0.7119,-0.7155,-0.7195,-0.7215,-0.7248,-0.7279,-0.733,-0.7331,-0.7355,-0.7369,-0.7393,-0.7425,-0.739,-0.7391,-0.7396,-0.7477,-0.7476,-0.7482,-0.743,-0.7431,-0.7432,-0.7474,0,-0.6997,-0.706,-0.708,-0.7133,-0.7166,-0.7181,-0.7212,-0.7243,-0.7263,-0.7295,-0.7318,-0.7354,-0.7352,-0.7366,-0.739,-0.7415,-0.7441,-0.7413,-0.746,-0.7461,-0.7449,-0.749,-0.7489,-0.7527,-0.7479,-0.748,-0.7481,0,-0.7045,-0.7079,-0.7135,-0.7175,-0.719,-0.7218,-0.7257,-0.7287,-0.7323,-0.7336,-0.7364,-0.7377,-0.7416,-0.7406,-0.7461,-0.7442,-0.7462,-0.7478,-0.748,-0.7485,-0.7472,-0.7496,-0.754,-0.7545,-0.749,-0.7489,-0.7489,0,-0.7058,-0.7117,-0.7158,-0.7176,-0.7224,-0.7244,-0.7265,-0.73,-0.7324,-0.7359,-0.7374,-0.7413,-0.7435,-0.7466,-0.7489,-0.748,-0.7543,-0.7534,-0.7556,-0.7555,-0.7568,-0.7567,-0.7615,-0.7581,-0.7581,-0.7581,-0.7581,0,-0.7094,-0.7128,-0.7165,-0.719,-0.7229,-0.7253,-0.7292,-0.7314,-0.7346,-0.7377,-0.7392,-0.7421,-0.7451,-0.7484,-0.7504,-0.7547,-0.7556,-0.7569,-0.7574,-0.7568,-0.7566,-0.7581,-0.7579,-0.7583,-0.7582,-0.7582,-0.7582,0,-0.7114,-0.714,-0.7186,-0.7229,-0.724,-0.7267,-0.7304,-0.733,-0.7352,-0.7391,-0.7402,-0.7437,-0.7477,-0.7504,-0.7555,-0.7569,-0.7616,-0.762,-0.7603,-0.7606,-0.7626,-0.7624,-0.7686,-0.7696,-0.7655,-0.7655,-0.7655,0,-0.7135,-0.7162,-0.7207,-0.7229,-0.725,-0.7285,-0.7309,-0.7335,-0.7359,-0.7403,-0.7425,-0.7466,-0.75,-0.7564,-0.7594,-0.7634,-0.764,-0.7659,-0.7646,-0.7639,-0.7641,-0.7639,-0.7642,-0.7661,-0.7661,-0.7661,-0.7661,0,-0.717,-0.7182,-0.7216,-0.7255,-0.7283,-0.7315,-0.7348,-0.7365,-0.7396,-0.7424,-0.7465,-0.7492,-0.7545,-0.7586,-0.7629,-0.7652,-0.7663,-0.7666,-0.7673,-0.7667,-0.7656,-0.7663,-0.7609,-0.7664,-0.7664,-0.7663,-0.7663,-0.7663,-0.7192,-0.7216,-0.7252,-0.729,-0.7317,-0.7348,-0.7374,-0.74,-0.7435,-0.748,-0.7493,-0.7536,-0.7574,-0.7633,-0.7657,-0.7692,-0.769,-0.77,-0.7703,-0.7705,-0.7705,-0.7651,-0.77,-0.77,-0.77,-0.77,-0.77,0,-0.7228,-0.7252,-0.7287,-0.7331,-0.7361,-0.7369,-0.7405,-0.743,-0.7468,-0.7502,-0.7535,-0.7584,-0.7624,-0.7658,-0.7701,-0.7722,-0.7728,-0.7733,-0.7731,-0.7737,-0.7704,-0.7694,-0.7727,-0.7727,-0.7727,-0.7727,-0.7727,-0.7727,-0.725,-0.7292,-0.7309,-0.7366,-0.739,-0.7432,-0.7453,-0.7481,-0.7509,-0.7562,-0.7595,-0.7617,-0.7652,-0.7697,-0.7735,-0.7744,-0.7759,-0.7763,-0.7773,-0.7742,-0.7739,-0.7736,-0.7726,-0.7766,-0.7766,-0.7803,-0.7803,-0.7803]}]]